Baraboo, WI

9:45 PM CDT on June 23, 2017 (GMT -0500)
Baraboo Wisconsin Dells

Weather History for KDLL - March, 2013

Change the Weather History Date:

Sunday, March 10, 2013

  Actual Average Record
Temperature  
Mean Temperature 34 °F -  
Max Temperature 37 °F 40 °F 62 °F (1977)
Min Temperature 32 °F 18 °F -5 °F (1984)
Degree Days  
Heating Degree Days 30    
Moisture  
Dew Point 34 °F    
Average Humidity 97    
Maximum Humidity 100    
Minimum Humidity 93    
Precipitation  
Precipitation 0.36 in - - ()
Sea Level Pressure  
Sea Level Pressure 29.72 in    
Wind  
Wind Speed 8 mph (NE)    
Max Wind Speed 20 mph    
Max Gust Speed 30 mph    
Visibility 4 miles    
Events Fog , Rain , Snow    
Averages and records for this station are not official NWS values.
T = Trace of Precipitation, MM = Missing Value Source: NWS Daily Summary

Daily Weather History Graph

Daily Weather History Graph

Search for Another Location

Airport or City:

Trip Planner

Search our weather history database for the weather conditions in past years. The results will help you decide how hot, cold, wet, or windy it might be!

Date:

Astronomy

Mar. 10, 2013 Rise Set
Actual Time 7:19 AM CDT 6:59 PM CDT
Civil Twilight 6:51 AM CDT 7:28 PM CDT
Nautical Twilight 6:17 AM CDT 8:01 PM CDT
Astronomical Twilight 5:44 AM CDT 8:34 PM CDT
Moon 6:20 AM CDT (3/10) 6:07 PM CDT (3/10)
Length of Visible Light 12h 37m
Length of Day
11h 39m
Waning Crescent, 2% of the Moon is Illuminated
Mar 10
Waning Crescent
Mar 11
New
Mar 19
First Quarter
Mar 27
Full
Apr 2
Last Quarter

Hourly Weather History & Observations

Time (CDT) Temp. Windchill Dew Point Humidity Pressure Visibility Wind Dir Wind Speed Gust Speed Precip Events Conditions
12:15 AM 37.4 °F 30.3 °F 35.6 °F 93% 29.75 in 5.0 mi SSW 10.4 mph - N/A   Overcast
12:35 AM 35.6 °F 29.9 °F 35.6 °F 100% 29.75 in 3.0 mi South 6.9 mph - N/A   Overcast
12:55 AM 37.4 °F - 35.6 °F 93% 29.76 in 3.0 mi Calm Calm - N/A   Light Drizzle
1:15 AM 35.6 °F 30.7 °F 35.6 °F 100% 29.75 in 2.5 mi South 5.8 mph - N/A Rain Light Rain
1:35 AM 35.6 °F 29.9 °F 33.8 °F 93% 29.74 in 2.0 mi South 6.9 mph - N/A   Light Drizzle
1:55 AM 35.6 °F 30.7 °F 35.6 °F 100% 29.74 in 3.0 mi South 5.8 mph - N/A   Overcast
3:15 AM 35.6 °F - 33.8 °F 93% 29.74 in 1.8 mi Calm Calm - N/A   Drizzle
3:35 AM 35.6 °F 32.8 °F 35.6 °F 100% 29.73 in 1.2 mi SSE 3.5 mph - N/A   Drizzle
3:55 AM 35.6 °F - 35.6 °F 100% 29.73 in 1.5 mi Calm Calm - 0.01 in Rain Light Rain
4:15 AM 35.6 °F - 35.6 °F 100% 29.72 in 0.8 mi Calm Calm - 0.01 in Rain Light Rain
4:35 AM 35.6 °F 31.7 °F 35.6 °F 100% 29.71 in 0.2 mi NNE 4.6 mph - 0.01 in Rain Rain
4:55 AM 35.6 °F 32.8 °F 33.8 °F 93% 29.71 in 0.2 mi NNE 3.5 mph - 0.02 in Rain Rain
5:15 AM 35.6 °F 31.7 °F 33.8 °F 93% 29.73 in 0.2 mi SE 4.6 mph - 0.03 in Rain Light Rain
5:35 AM 33.8 °F 29.6 °F 33.8 °F 100% 29.73 in 0.2 mi ESE 4.6 mph - 0.05 in Rain Light Rain
6:15 AM 35.6 °F 29.9 °F 33.8 °F 93% 29.68 in 0.2 mi ENE 6.9 mph - N/A   Light Drizzle
6:35 AM 33.8 °F 27.0 °F 33.8 °F 100% 29.67 in 0.2 mi NE 8.1 mph - N/A Fog Fog
7:35 AM 33.8 °F 30.8 °F 33.8 °F 100% 29.72 in 0.2 mi East 3.5 mph - N/A Fog Fog
7:55 AM 33.8 °F - 33.8 °F 100% 29.72 in 0.2 mi Calm Calm - N/A Fog Fog
8:15 AM 33.8 °F - 33.8 °F 100% 29.74 in 0.2 mi Calm Calm - N/A Fog Fog
8:35 AM 33.8 °F 30.8 °F 33.8 °F 100% 29.76 in 0.2 mi WNW 3.5 mph - N/A Fog Fog
8:55 AM 33.8 °F - 33.8 °F 100% 29.78 in 0.2 mi Calm Calm - 0.01 in Rain Rain
9:15 AM 33.8 °F - 33.8 °F 100% 29.78 in 0.5 mi Calm Calm - 0.03 in   Heavy Drizzle
9:35 AM 35.6 °F 31.7 °F 33.8 °F 93% 29.79 in 0.5 mi NW 4.6 mph - 0.03 in   Drizzle
9:55 AM 35.6 °F 31.7 °F 33.8 °F 93% 29.77 in 0.8 mi North 4.6 mph - 0.03 in   Light Drizzle
10:15 AM 35.6 °F 30.7 °F 33.8 °F 93% 29.76 in 1.8 mi NNE 5.8 mph - N/A   Overcast
10:35 AM 35.6 °F 31.7 °F 35.6 °F 100% 29.78 in 3.0 mi NE 4.6 mph - N/A   Overcast
10:55 AM 35.6 °F 30.7 °F 33.8 °F 93% 29.78 in 1.5 mi NNE 5.8 mph - N/A   Overcast
11:15 AM 35.6 °F 32.8 °F 35.6 °F 100% 29.80 in 1.8 mi North 3.5 mph - N/A   Overcast
11:35 AM 35.6 °F 31.7 °F 35.6 °F 100% 29.79 in 2.0 mi NNE 4.6 mph - N/A   Overcast
11:55 AM 35.6 °F 28.6 °F 35.6 °F 100% 29.78 in 7.0 mi NNE 9.2 mph - N/A   Overcast
12:15 PM 35.6 °F 29.2 °F 35.6 °F 100% 29.77 in 10.0 mi NNE 8.1 mph - N/A   Overcast
12:35 PM 35.6 °F 29.2 °F 35.6 °F 100% 29.78 in 10.0 mi NE 8.1 mph 17.3 mph N/A   Overcast
12:55 PM 35.6 °F 29.2 °F 35.6 °F 100% 29.79 in 10.0 mi NE 8.1 mph - N/A   Overcast
1:15 PM 35.6 °F 28.6 °F 35.6 °F 100% 29.79 in 10.0 mi NE 9.2 mph - N/A   Overcast
1:35 PM 35.6 °F 29.2 °F 35.6 °F 100% 29.80 in 10.0 mi NE 8.1 mph - N/A   Overcast
1:55 PM 35.6 °F 29.9 °F 35.6 °F 100% 29.78 in 10.0 mi NE 6.9 mph - N/A   Overcast
2:15 PM 35.6 °F 28.0 °F 35.6 °F 100% 29.76 in 10.0 mi NE 10.4 mph 17.3 mph N/A   Overcast
2:35 PM 35.6 °F 26.6 °F 35.6 °F 100% 29.75 in 10.0 mi NE 13.8 mph - N/A   Overcast
2:55 PM 35.6 °F 27.1 °F 33.8 °F 93% 29.74 in 10.0 mi NE 12.7 mph - N/A   Overcast
3:15 PM 35.6 °F 26.6 °F 33.8 °F 93% 29.74 in 10.0 mi NE 13.8 mph 23.0 mph N/A   Overcast
3:35 PM 35.6 °F 25.9 °F 33.8 °F 93% 29.73 in 10.0 mi NE 16.1 mph 21.9 mph N/A   Overcast
3:55 PM 33.8 °F 23.9 °F 33.8 °F 100% 29.74 in 10.0 mi NE 15.0 mph - N/A Rain Light Rain
4:15 PM 33.8 °F 24.8 °F 33.8 °F 100% 29.74 in 7.0 mi NE 12.7 mph 17.3 mph N/A Rain Light Rain
4:35 PM 33.8 °F 25.8 °F 33.8 °F 100% 29.74 in 3.0 mi NE 10.4 mph 17.3 mph 0.02 in Rain Light Rain
5:15 PM 33.8 °F 24.8 °F 32.0 °F 93% 29.75 in 3.0 mi NE 12.7 mph - 0.03 in Rain Light Rain
5:35 PM 33.8 °F 24.8 °F 32.0 °F 93% 29.73 in 4.0 mi NE 12.7 mph 18.4 mph 0.05 in Rain Light Rain
5:55 PM 33.8 °F 23.5 °F 32.0 °F 93% 29.71 in 4.0 mi NE 16.1 mph 24.2 mph 0.07 in Rain Light Rain
6:15 PM 33.8 °F 23.2 °F 32.0 °F 93% 29.69 in 5.0 mi NE 17.3 mph 24.2 mph N/A Rain Rain
6:35 PM 33.8 °F 22.5 °F 32.0 °F 93% 29.68 in 4.0 mi NE 19.6 mph 26.5 mph 0.01 in Rain Rain
6:55 PM 33.8 °F 22.8 °F 32.0 °F 93% 29.69 in 5.0 mi ENE 18.4 mph 25.3 mph 0.01 in Rain Light Rain
7:15 PM 33.8 °F 23.2 °F 32.0 °F 93% 29.67 in 4.0 mi NE 17.3 mph 25.3 mph N/A Rain Light Rain
7:35 PM 33.8 °F 22.8 °F 32.0 °F 93% 29.67 in 5.0 mi ENE 18.4 mph 25.3 mph 0.01 in Rain Light Rain
7:55 PM 33.8 °F 23.9 °F 32.0 °F 93% 29.67 in 1.5 mi ENE 15.0 mph 25.3 mph 0.01 in   Light Drizzle
8:15 PM 33.8 °F 23.5 °F 32.0 °F 93% 29.66 in 1.2 mi ENE 16.1 mph 29.9 mph N/A Rain Light Rain
8:35 PM 32.0 °F 21.6 °F 32.0 °F 100% 29.65 in 1.2 mi ENE 15.0 mph 26.5 mph N/A Rain Light Rain
8:55 PM 32.0 °F 20.5 °F 32.0 °F 100% 29.65 in 1.0 mi ENE 18.4 mph 27.6 mph 0.04 in Rain Rain
9:15 PM 32.0 °F 21.6 °F 32.0 °F 100% 29.65 in 2.0 mi NE 15.0 mph - 0.03 in Rain Light Rain
9:35 PM 32.0 °F 21.6 °F 32.0 °F 100% 29.65 in 2.5 mi ENE 15.0 mph 18.4 mph 0.04 in   Overcast
9:55 PM 32.0 °F 20.8 °F 32.0 °F 100% 29.65 in 2.5 mi NE 17.3 mph 23.0 mph 0.06 in   Overcast
10:15 PM 32.0 °F 21.2 °F 32.0 °F 100% 29.65 in 3.0 mi ENE 16.1 mph 25.3 mph 0.01 in   Overcast
10:35 PM 32.0 °F 23.0 °F 32.0 °F 100% 29.67 in 1.8 mi NE 11.5 mph 19.6 mph 0.02 in Rain Light Rain
10:55 PM 32.0 °F 23.0 °F 32.0 °F 100% 29.67 in 3.0 mi NNE 11.5 mph - 0.03 in Snow Light Snow
11:15 PM 32.0 °F 23.0 °F 32.0 °F 100% 29.67 in 3.0 mi NNE 11.5 mph 18.4 mph N/A   Overcast
11:35 PM 32.0 °F 24.2 °F 32.0 °F 100% 29.67 in 4.0 mi NNE 9.2 mph - N/A   Light Drizzle
12:15 AM 32.0 °F 24.2 °F 32.0 °F 100% 29.65 in 4.0 mi NNE 9.2 mph - N/A   Overcast
12:35 AM 32.0 °F 25.6 °F 32.0 °F 100% 29.64 in 10.0 mi NNE 6.9 mph 17.3 mph N/A   Overcast
12:55 AM 32.0 °F 24.8 °F 32.0 °F 100% 29.63 in 10.0 mi NE 8.1 mph - N/A   Overcast